Home   Weather   Monaco   Past weeks
Flag for Monaco

Past Weather in Monaco, Monaco — Yesterday and Last 2 Weeks

Now
81 °F

Passing clouds.


Feels Like: 84 °F
Forecast: 84 / 77 °F
Wind: 2 mph from North

Location: Nice Airport

Current Time: Jul 22, 2019 at 9:52:14 am

Latest Report: Jul 22, 2019 at 9:00 am


Visibility: N/A

Pressure: 30.18 "Hg

Humidity: 70%

Dew Point: 70 °F

Location of MonacoLocation

Past Weather in Monaco — Graph

°F

Monaco Temperature Yesterday

Maximum temperature yesterday: 82 °F (at 2:30 pm)
Minimum temperature yesterday: 73 °F (at 2:30 am)
Average temperature yesterday: 78 °F

High & Low Weather Summary for the Past Weeks

 TemperatureHumidityPressure
High88 °F (Jul 7, 11:00 am)89% (Jul 7, 9:30 pm)30.18 "Hg (Jul 7, 9:30 pm)
Low66 °F (Jul 16, 4:30 am)35% (Jul 8, 9:30 am)29.68 "Hg (Jul 15, 5:00 am)
Average78 °F69%29.89 "Hg
* Reported Jul 7 8:00 am — Jul 22 8:30 am, Monaco. Weather by CustomWeather, © 2019

Note: Actual official high and low records may vary slightly from our data, if they occured in-between our weather recording intervals... More about our weather records

Advertising

Monaco Weather History for the Previous 24 Hours

Scroll right to see more
 ConditionsComfort  
Time TempWeatherWind HumidityBarometerVisibility
8:30 am
Mon, Jul 22
77 °FPassing clouds.6 mph74%30.18 "HgN/A
8:00 am75 °FPassing clouds.6 mph74%30.15 "HgN/A
7:30 am75 °FPassing clouds.8 mph74%30.15 "HgN/A
7:00 am73 °FPassing clouds.8 mph78%30.15 "HgN/A
6:30 am73 °FPassing clouds.6 mph78%30.15 "HgN/A
6:00 am73 °FPassing clouds.7 mph78%30.15 "HgN/A
5:30 am73 °FPassing clouds.7 mph78%30.15 "HgN/A
5:00 am73 °FPassing clouds.6 mph78%30.15 "HgN/A
4:30 am73 °FPassing clouds.6 mph78%30.15 "HgN/A
4:00 am73 °FPassing clouds.6 mph78%30.15 "HgN/A
3:30 am73 °FPassing clouds.6 mph78%30.15 "HgN/A
3:00 am75 °FPassing clouds.3 mph78%30.15 "HgN/A
2:30 am75 °FPassing clouds.5 mph78%30.15 "HgN/A
2:00 am77 °FPassing clouds.3 mph74%30.15 "HgN/A
1:30 am77 °FClear.6 mph79%30.15 "Hg10 mi
1:00 am77 °FClear.6 mph79%30.15 "Hg10 mi
12:30 am79 °FClear.5 mph74%30.15 "Hg10 mi
12:00 am77 °FClear.2 mph74%30.15 "Hg10 mi
11:30 pm
Sun, Jul 21
77 °FClear.1 mph74%30.15 "Hg10 mi
11:00 pm79 °FClear.2 mph70%30.15 "Hg10 mi
10:30 pm79 °FClear.1 mph70%30.15 "Hg10 mi
10:00 pm79 °FClear.2 mph70%30.12 "Hg10 mi
9:30 pm79 °FClear.5 mph70%30.12 "Hg10 mi
9:00 pm79 °FSunny.5 mph70%30.12 "Hg10 mi
8:30 pm79 °FSunny.5 mph70%30.12 "Hg10 mi
8:00 pm79 °FSunny.5 mph70%30.12 "Hg10 mi
7:30 pm81 °FSunny.6 mph66%30.12 "Hg10 mi
7:00 pm81 °FSunny.7 mph70%30.09 "Hg10 mi
6:35 pm81 °FPassing clouds.7 mph70%30.09 "HgN/A
6:00 pm81 °FPassing clouds.7 mph66%30.12 "HgN/A
5:30 pm81 °FPassing clouds.6 mph66%30.12 "HgN/A
5:00 pm81 °FScattered clouds.6 mph70%30.12 "HgN/A
4:30 pm81 °FPassing clouds.7 mph70%30.12 "HgN/A
4:00 pm81 °FPassing clouds.7 mph74%30.12 "HgN/A
3:30 pm81 °FPassing clouds.8 mph74%30.12 "HgN/A
3:00 pm82 °FPassing clouds.9 mph70%30.12 "HgN/A
2:30 pm82 °FPassing clouds.9 mph70%30.12 "HgN/A
2:00 pm81 °FPassing clouds.8 mph74%30.12 "HgN/A
1:30 pm81 °FPassing clouds.8 mph74%30.12 "HgN/A
1:00 pm81 °FPassing clouds.8 mph70%30.12 "HgN/A
12:30 pm81 °FPassing clouds.7 mph70%30.12 "HgN/A
12:00 pm81 °FPassing clouds.6 mph74%30.12 "HgN/A
11:30 am79 °FPassing clouds.6 mph74%30.12 "HgN/A
11:00 am79 °FScattered clouds.5 mph79%30.12 "HgN/A
10:30 am79 °FScattered clouds.6 mph79%30.12 "HgN/A
10:00 am79 °FScattered clouds.5 mph74%30.12 "HgN/A
9:30 am79 °FScattered clouds.3 mph74%30.12 "HgN/A
9:00 am77 °FScattered clouds.2 mph79%30.12 "HgN/A
Weather by CustomWeather, © 2019

See weather overview